Time,TemperatureF,DewpointF,PressureIn,WindDirection,WindDirectionDegrees,WindSpeedMPH,WindSpeedGustMPH,Humidity,HourlyPrecipIn,Conditions,Clouds,dailyrainin,SoftwareType,DateUTC
2013-04-27 00:01:00,31.3,26.4,30.47,NNW,333,0.0,6.0,82,0.00,,,0.00,Wunderground v.1.15,2013-04-27 04:01:00,
2013-04-27 00:02:00,31.3,26.7,30.47,NNW,333,0.0,6.0,83,0.00,,,0.00,Wunderground v.1.15,2013-04-27 04:02:00,
2013-04-27 00:04:00,31.3,26.7,30.47,NNW,333,0.0,6.0,83,0.00,,,0.00,Wunderground v.1.15,2013-04-27 04:04:00,
2013-04-27 00:05:00,31.2,26.9,30.47,NNW,333,0.0,6.0,84,0.00,,,0.00,Wunderground v.1.15,2013-04-27 04:05:00,
2013-04-27 00:08:00,31.1,26.8,30.47,NNW,333,0.0,6.0,84,0.00,,,0.00,Wunderground v.1.15,2013-04-27 04:08:00,
2013-04-27 00:13:00,30.8,26.5,30.47,NNW,333,0.0,6.0,84,0.00,,,0.00,Wunderground v.1.15,2013-04-27 04:13:00,
2013-04-27 00:18:00,30.6,26.6,30.47,NNW,333,0.0,6.0,85,0.00,,,0.00,Wunderground v.1.15,2013-04-27 04:18:00,
2013-04-27 00:23:00,30.4,26.4,30.47,NNW,333,0.0,6.0,85,0.00,,,0.00,Wunderground v.1.15,2013-04-27 04:23:00,
2013-04-27 00:28:00,30.6,26.6,30.48,NNW,333,0.0,6.0,85,0.00,,,0.00,Wunderground v.1.15,2013-04-27 04:28:00,
2013-04-27 00:34:00,30.3,26.0,30.48,NNW,333,0.0,6.0,84,0.00,,,0.00,Wunderground v.1.15,2013-04-27 04:34:00,
2013-04-27 00:39:00,30.0,26.0,30.48,NNW,333,0.0,6.0,85,0.00,,,0.00,Wunderground v.1.15,2013-04-27 04:39:00,
2013-04-27 00:44:00,29.8,25.8,30.48,NNW,333,0.0,6.0,85,0.00,,,0.00,Wunderground v.1.15,2013-04-27 04:44:00,
2013-04-27 00:49:00,29.9,26.2,30.48,NNW,333,0.0,6.0,86,0.00,,,0.00,Wunderground v.1.15,2013-04-27 04:49:00,
2013-04-27 00:54:00,30.3,26.6,30.48,NNW,333,0.0,6.0,86,0.00,,,0.00,Wunderground v.1.15,2013-04-27 04:54:00,
2013-04-27 01:00:00,30.1,26.4,30.48,NNW,333,0.0,6.0,86,0.00,,,0.00,Wunderground v.1.15,2013-04-27 05:00:00,
2013-04-27 01:05:00,29.9,26.5,30.48,NNW,333,0.0,6.0,87,0.00,,,0.00,Wunderground v.1.15,2013-04-27 05:05:00,
2013-04-27 01:10:00,29.6,25.9,30.48,NNW,333,0.0,6.0,86,0.00,,,0.00,Wunderground v.1.15,2013-04-27 05:10:00,
2013-04-27 01:15:00,29.5,25.8,30.48,NNW,333,0.0,6.0,86,0.00,,,0.00,Wunderground v.1.15,2013-04-27 05:15:00,
2013-04-27 01:20:00,29.4,26.0,30.48,NNW,333,0.0,6.0,87,0.00,,,0.00,Wunderground v.1.15,2013-04-27 05:20:00,
2013-04-27 01:26:00,29.8,26.1,30.48,NNW,333,0.0,6.0,86,0.00,,,0.00,Wunderground v.1.15,2013-04-27 05:26:00,
2013-04-27 01:31:00,29.7,26.0,30.48,NNW,333,0.0,6.0,86,0.00,,,0.00,Wunderground v.1.15,2013-04-27 05:31:00,
2013-04-27 01:36:00,29.4,26.0,30.47,NNW,333,0.0,6.0,87,0.00,,,0.00,Wunderground v.1.15,2013-04-27 05:36:00,
2013-04-27 01:41:00,29.2,25.8,30.47,NNW,333,0.0,6.0,87,0.00,,,0.00,Wunderground v.1.15,2013-04-27 05:41:00,
2013-04-27 01:46:00,29.0,25.9,30.47,NNW,333,0.0,6.0,88,0.00,,,0.00,Wunderground v.1.15,2013-04-27 05:46:00,
2013-04-27 01:52:00,28.9,25.8,30.47,NNW,333,0.0,6.0,88,0.00,,,0.00,Wunderground v.1.15,2013-04-27 05:52:00,
2013-04-27 01:57:00,29.0,25.6,30.47,NNW,333,0.0,6.0,87,0.00,,,0.00,Wunderground v.1.15,2013-04-27 05:57:00,
2013-04-27 02:02:00,29.0,25.6,30.47,NNW,333,0.0,6.0,87,0.00,,,0.00,Wunderground v.1.15,2013-04-27 06:02:00,
2013-04-27 02:07:00,28.8,25.4,30.47,NNW,333,0.0,6.0,87,0.00,,,0.00,Wunderground v.1.15,2013-04-27 06:07:00,
2013-04-27 02:12:00,28.5,25.1,30.46,NNW,333,0.0,6.0,87,0.00,,,0.00,Wunderground v.1.15,2013-04-27 06:12:00,
2013-04-27 02:18:00,28.4,25.3,30.46,NNW,333,0.0,6.0,88,0.00,,,0.00,Wunderground v.1.15,2013-04-27 06:18:00,
2013-04-27 02:23:00,28.1,25.0,30.46,NNW,333,0.0,6.0,88,0.00,,,0.00,Wunderground v.1.15,2013-04-27 06:23:00,
2013-04-27 02:28:00,28.1,25.3,30.46,North,5,0.0,6.0,89,0.00,,,0.00,Wunderground v.1.15,2013-04-27 06:28:00,
2013-04-27 02:33:00,28.3,25.5,30.46,NE,39,0.0,6.0,89,0.00,,,0.00,Wunderground v.1.15,2013-04-27 06:33:00,
2013-04-27 02:38:00,28.3,25.5,30.46,NE,38,0.0,6.0,89,0.00,,,0.00,Wunderground v.1.15,2013-04-27 06:38:00,
2013-04-27 02:43:00,28.2,25.4,30.46,NE,37,0.0,6.0,89,0.00,,,0.00,Wunderground v.1.15,2013-04-27 06:43:00,
2013-04-27 02:48:00,27.9,25.1,30.46,NE,37,0.0,6.0,89,0.00,,,0.00,Wunderground v.1.15,2013-04-27 06:48:00,
2013-04-27 02:53:00,27.8,25.0,30.46,NE,39,0.0,6.0,89,0.00,,,0.00,Wunderground v.1.15,2013-04-27 06:53:00,
2013-04-27 02:58:00,27.8,25.0,30.46,NE,39,0.0,6.0,89,0.00,,,0.00,Wunderground v.1.15,2013-04-27 06:58:00,
2013-04-27 03:03:00,27.6,24.8,30.46,NE,39,0.0,6.0,89,0.00,,,0.00,Wunderground v.1.15,2013-04-27 07:03:00,
2013-04-27 03:08:00,27.3,24.5,30.46,NE,37,0.0,6.0,89,0.00,,,0.00,Wunderground v.1.15,2013-04-27 07:08:00,
2013-04-27 03:13:00,26.9,24.1,30.46,NE,39,0.0,6.0,89,0.00,,,0.00,Wunderground v.1.15,2013-04-27 07:13:00,
2013-04-27 03:19:00,27.1,24.6,30.46,NE,39,0.0,6.0,90,0.00,,,0.00,Wunderground v.1.15,2013-04-27 07:19:00,
2013-04-27 03:24:00,27.1,24.6,30.46,NE,39,0.0,6.0,90,0.00,,,0.00,Wunderground v.1.15,2013-04-27 07:24:00,
2013-04-27 03:29:00,27.3,24.8,30.46,NE,38,0.0,6.0,90,0.00,,,0.00,Wunderground v.1.15,2013-04-27 07:29:00,
2013-04-27 03:34:00,27.3,24.8,30.46,NE,39,0.0,6.0,90,0.00,,,0.00,Wunderground v.1.15,2013-04-27 07:34:00,
2013-04-27 03:39:00,27.0,24.5,30.46,NE,39,0.0,6.0,90,0.00,,,0.00,Wunderground v.1.15,2013-04-27 07:39:00,
2013-04-27 03:45:00,26.6,24.1,30.46,NE,39,0.0,6.0,90,0.00,,,0.00,Wunderground v.1.15,2013-04-27 07:45:00,
2013-04-27 03:50:00,26.3,23.8,30.46,NE,38,0.0,6.0,90,0.00,,,0.00,Wunderground v.1.15,2013-04-27 07:50:00,
2013-04-27 03:55:00,26.2,23.9,30.46,NE,39,0.0,6.0,91,0.00,,,0.00,Wunderground v.1.15,2013-04-27 07:55:00,
2013-04-27 04:00:00,26.2,23.9,30.46,NE,38,0.0,6.0,91,0.00,,,0.00,Wunderground v.1.15,2013-04-27 08:00:00,
2013-04-27 04:05:00,26.6,24.6,30.46,NE,39,0.0,6.0,92,0.00,,,0.00,Wunderground v.1.15,2013-04-27 08:05:00,
2013-04-27 04:11:00,26.6,24.3,30.46,NE,39,0.0,6.0,91,0.00,,,0.00,Wunderground v.1.15,2013-04-27 08:11:00,
2013-04-27 04:16:00,26.5,24.2,30.46,NE,38,0.0,6.0,91,0.00,,,0.00,Wunderground v.1.15,2013-04-27 08:16:00,
2013-04-27 04:21:00,26.4,24.4,30.46,NE,39,0.0,6.0,92,0.00,,,0.00,Wunderground v.1.15,2013-04-27 08:21:00,
2013-04-27 04:26:00,26.7,24.7,30.46,NE,39,0.0,6.0,92,0.00,,,0.00,Wunderground v.1.15,2013-04-27 08:26:00,
2013-04-27 04:31:00,26.8,24.8,30.46,NE,38,0.0,6.0,92,0.00,,,0.00,Wunderground v.1.15,2013-04-27 08:31:00,
2013-04-27 04:37:00,26.7,24.7,30.46,NE,39,0.0,6.0,92,0.00,,,0.00,Wunderground v.1.15,2013-04-27 08:37:00,
2013-04-27 04:42:00,26.7,24.7,30.46,NE,39,0.0,6.0,92,0.00,,,0.00,Wunderground v.1.15,2013-04-27 08:42:00,
2013-04-27 04:47:00,26.5,24.5,30.46,NE,39,0.0,6.0,92,0.00,,,0.00,Wunderground v.1.15,2013-04-27 08:47:00,
2013-04-27 04:52:00,26.1,24.1,30.46,NE,39,0.0,6.0,92,0.00,,,0.00,Wunderground v.1.15,2013-04-27 08:52:00,
2013-04-27 04:57:00,26.0,24.3,30.46,NE,39,0.0,6.0,93,0.00,,,0.00,Wunderground v.1.15,2013-04-27 08:57:00,
2013-04-27 05:03:00,25.8,24.1,30.46,NE,39,0.0,6.0,93,0.00,,,0.00,Wunderground v.1.15,2013-04-27 09:03:00,
2013-04-27 05:08:00,25.6,23.9,30.46,NE,39,0.0,6.0,93,0.00,,,0.00,Wunderground v.1.15,2013-04-27 09:08:00,
2013-04-27 05:13:00,25.1,23.1,30.46,NE,39,0.0,6.0,92,0.00,,,0.00,Wunderground v.1.15,2013-04-27 09:13:00,
2013-04-27 05:18:00,25.2,23.5,30.46,NE,39,0.0,6.0,93,0.00,,,0.00,Wunderground v.1.15,2013-04-27 09:18:00,
2013-04-27 05:23:00,25.5,24.0,30.46,NE,38,0.0,6.0,94,0.00,,,0.00,Wunderground v.1.15,2013-04-27 09:23:00,
2013-04-27 05:29:00,25.4,23.7,30.46,NE,39,0.0,6.0,93,0.00,,,0.00,Wunderground v.1.15,2013-04-27 09:29:00,
2013-04-27 05:34:00,25.1,23.4,30.46,NE,38,0.0,6.0,93,0.00,,,0.00,Wunderground v.1.15,2013-04-27 09:34:00,
2013-04-27 05:39:00,24.8,23.1,30.46,NE,38,0.0,6.0,93,0.00,,,0.00,Wunderground v.1.15,2013-04-27 09:39:00,
2013-04-27 05:44:00,24.8,23.1,30.46,NE,38,0.0,6.0,93,0.00,,,0.00,Wunderground v.1.15,2013-04-27 09:44:00,
2013-04-27 05:49:00,25.1,23.6,30.46,NE,38,0.0,6.0,94,0.00,,,0.00,Wunderground v.1.15,2013-04-27 09:49:00,
2013-04-27 05:55:00,25.1,23.6,30.46,NE,39,0.0,6.0,94,0.00,,,0.00,Wunderground v.1.15,2013-04-27 09:55:00,
2013-04-27 06:00:00,25.3,24.1,30.46,NE,38,0.0,6.0,95,0.00,,,0.00,Wunderground v.1.15,2013-04-27 10:00:00,
2013-04-27 06:05:00,25.3,24.1,30.46,NE,38,0.0,6.0,95,0.00,,,0.00,Wunderground v.1.15,2013-04-27 10:05:00,
2013-04-27 06:10:00,25.2,23.7,30.46,NE,39,0.0,6.0,94,0.00,,,0.00,Wunderground v.1.15,2013-04-27 10:10:00,
2013-04-27 06:15:00,25.4,24.2,30.47,NE,39,0.0,6.0,95,0.00,,,0.00,Wunderground v.1.15,2013-04-27 10:15:00,
2013-04-27 06:20:00,25.5,24.3,30.47,NE,39,0.0,6.0,95,0.00,,,0.00,Wunderground v.1.15,2013-04-27 10:20:00,
2013-04-27 06:25:00,25.5,24.3,30.47,NE,39,0.0,6.0,95,0.00,,,0.00,Wunderground v.1.15,2013-04-27 10:25:00,
2013-04-27 06:30:00,25.5,24.3,30.47,NE,39,0.0,6.0,95,0.00,,,0.00,Wunderground v.1.15,2013-04-27 10:30:00,
2013-04-27 06:35:00,25.4,23.9,30.47,NE,39,0.0,6.0,94,0.00,,,0.00,Wunderground v.1.15,2013-04-27 10:35:00,
2013-04-27 06:40:00,25.5,24.0,30.47,NE,38,0.0,6.0,94,0.00,,,0.00,Wunderground v.1.15,2013-04-27 10:40:00,
2013-04-27 06:45:00,25.8,24.6,30.47,NE,39,0.0,6.0,95,0.00,,,0.00,Wunderground v.1.15,2013-04-27 10:45:00,
2013-04-27 06:51:00,26.1,24.9,30.47,NE,39,0.0,6.0,95,0.00,,,0.00,Wunderground v.1.15,2013-04-27 10:51:00,
2013-04-27 06:56:00,26.4,25.2,30.47,NE,39,0.0,6.0,95,0.00,,,0.00,Wunderground v.1.15,2013-04-27 10:56:00,
2013-04-27 07:01:00,26.9,25.7,30.47,NE,37,0.0,0.0,95,0.00,,,0.00,Wunderground v.1.15,2013-04-27 11:01:00,
2013-04-27 07:06:00,27.8,26.6,30.47,NE,37,0.0,0.0,95,0.00,,,0.00,Wunderground v.1.15,2013-04-27 11:06:00,
2013-04-27 07:11:00,28.6,27.4,30.47,NE,37,0.0,0.0,95,0.00,,,0.00,Wunderground v.1.15,2013-04-27 11:11:00,
2013-04-27 07:17:00,30.2,28.7,30.47,NE,37,0.0,0.0,94,0.00,,,0.00,Wunderground v.1.15,2013-04-27 11:17:00,
2013-04-27 07:22:00,31.1,29.3,30.47,NE,37,0.0,0.0,93,0.00,,,0.00,Wunderground v.1.15,2013-04-27 11:22:00,
2013-04-27 07:27:00,31.5,29.2,30.47,NE,37,0.0,0.0,91,0.00,,,0.00,Wunderground v.1.15,2013-04-27 11:27:00,
2013-04-27 07:32:00,31.8,29.2,30.47,NE,37,0.0,0.0,90,0.00,,,0.00,Wunderground v.1.15,2013-04-27 11:32:00,
2013-04-27 07:37:00,31.9,29.0,30.47,NE,37,0.0,0.0,89,0.00,,,0.00,Wunderground v.1.15,2013-04-27 11:37:00,
2013-04-27 07:43:00,32.1,29.2,30.47,NE,37,0.0,0.0,89,0.00,,,0.00,Wunderground v.1.15,2013-04-27 11:43:00,
2013-04-27 07:48:00,32.7,29.8,30.47,NE,37,0.0,0.0,89,0.00,,,0.00,Wunderground v.1.15,2013-04-27 11:48:00,
2013-04-27 07:53:00,33.5,30.3,30.47,NE,37,0.0,0.0,88,0.00,,,0.00,Wunderground v.1.15,2013-04-27 11:53:00,
2013-04-27 07:58:00,34.1,30.4,30.47,NE,37,0.0,0.0,86,0.00,,,0.00,Wunderground v.1.15,2013-04-27 11:58:00,
2013-04-27 08:03:00,34.8,30.8,30.47,NE,37,0.0,0.0,85,0.00,,,0.00,Wunderground v.1.15,2013-04-27 12:03:00,
2013-04-27 08:09:00,35.3,30.7,30.47,NE,39,0.0,0.0,83,0.00,,,0.00,Wunderground v.1.15,2013-04-27 12:09:00,
2013-04-27 08:14:00,35.6,30.6,30.47,SE,146,0.0,0.0,82,0.00,,,0.00,Wunderground v.1.15,2013-04-27 12:14:00,
2013-04-27 08:19:00,36.1,30.5,30.47,SSE,159,0.0,0.0,80,0.00,,,0.00,Wunderground v.1.15,2013-04-27 12:19:00,
2013-04-27 08:24:00,36.9,31.0,30.47,SSE,159,0.0,0.0,79,0.00,,,0.00,Wunderground v.1.15,2013-04-27 12:24:00,
2013-04-27 08:29:00,37.7,31.5,30.47,SSE,150,0.0,0.0,78,0.00,,,0.00,Wunderground v.1.15,2013-04-27 12:29:00,
2013-04-27 08:35:00,39.1,32.8,30.48,SSE,150,0.0,0.0,78,0.00,,,0.00,Wunderground v.1.15,2013-04-27 12:35:00,
2013-04-27 08:40:00,40.3,32.7,30.47,SSE,164,0.0,0.0,74,0.00,,,0.00,Wunderground v.1.15,2013-04-27 12:40:00,
2013-04-27 08:45:00,41.3,33.0,30.47,SSE,148,0.0,1.0,72,0.00,,,0.00,Wunderground v.1.15,2013-04-27 12:45:00,
2013-04-27 08:50:00,42.2,33.5,30.47,South,170,0.0,1.0,71,0.00,,,0.00,Wunderground v.1.15,2013-04-27 12:50:00,
2013-04-27 08:55:00,42.6,32.0,30.47,SW,222,0.0,1.0,66,0.00,,,0.00,Wunderground v.1.15,2013-04-27 12:55:00,
2013-04-27 09:01:00,43.1,32.1,30.47,SSE,154,1.0,1.0,65,0.00,,,0.00,Wunderground v.1.15,2013-04-27 13:01:00,
2013-04-27 09:06:00,43.8,32.8,30.47,SSW,194,1.0,1.0,65,0.00,,,0.00,Wunderground v.1.15,2013-04-27 13:06:00,
2013-04-27 09:11:00,44.6,32.0,30.47,SSE,148,1.0,3.0,61,0.00,,,0.00,Wunderground v.1.15,2013-04-27 13:11:00,
2013-04-27 09:16:00,45.4,31.0,30.47,SSW,201,1.0,3.0,57,0.00,,,0.00,Wunderground v.1.15,2013-04-27 13:16:00,
2013-04-27 09:21:00,46.1,31.3,30.47,ESE,119,1.0,1.0,56,0.00,,,0.00,Wunderground v.1.15,2013-04-27 13:21:00,
2013-04-27 09:27:00,47.2,31.4,30.47,SSW,211,1.0,2.0,54,0.00,,,0.00,Wunderground v.1.15,2013-04-27 13:27:00,
2013-04-27 09:32:00,47.9,29.1,30.47,West,281,1.0,2.0,48,0.00,,,0.00,Wunderground v.1.15,2013-04-27 13:32:00,
2013-04-27 09:37:00,48.0,28.2,30.47,NNW,347,2.0,2.0,46,0.00,,,0.00,Wunderground v.1.15,2013-04-27 13:37:00,
2013-04-27 09:42:00,48.4,28.5,30.47,WNW,291,3.0,3.0,46,0.00,,,0.00,Wunderground v.1.15,2013-04-27 13:42:00,
2013-04-27 09:49:00,49.0,28.6,30.47,West,259,3.0,4.0,45,0.00,,,0.00,Wunderground v.1.15,2013-04-27 13:49:00,
2013-04-27 09:54:00,49.2,28.2,30.47,WNW,285,3.0,3.0,44,0.00,,,0.00,Wunderground v.1.15,2013-04-27 13:54:00,
2013-04-27 09:59:00,49.7,27.5,30.47,NNW,328,2.0,3.0,42,0.00,,,0.00,Wunderground v.1.15,2013-04-27 13:59:00,
2013-04-27 10:04:00,50.0,26.0,30.47,NW,314,2.0,4.0,39,0.00,,,0.00,Wunderground v.1.15,2013-04-27 14:04:00,
2013-04-27 10:09:00,49.8,27.6,30.47,WNW,295,3.0,4.0,42,0.00,,,0.00,Wunderground v.1.15,2013-04-27 14:09:00,
2013-04-27 10:14:00,50.2,28.5,30.47,WNW,289,2.0,3.0,43,0.00,,,0.00,Wunderground v.1.15,2013-04-27 14:14:00,
2013-04-27 10:19:00,50.5,25.2,30.47,South,180,2.0,5.0,37,0.00,,,0.00,Wunderground v.1.15,2013-04-27 14:19:00,
2013-04-27 10:24:00,50.8,25.4,30.46,WNW,290,2.0,4.0,37,0.00,,,0.00,Wunderground v.1.15,2013-04-27 14:24:00,
2013-04-27 10:30:00,51.0,25.0,30.46,North,11,2.0,2.0,36,0.00,,,0.00,Wunderground v.1.15,2013-04-27 14:30:00,
2013-04-27 10:35:00,51.5,24.0,30.46,NNW,342,2.0,5.0,34,0.00,,,0.00,Wunderground v.1.15,2013-04-27 14:35:00,
2013-04-27 10:40:00,51.3,20.9,30.46,NNE,19,3.0,3.0,30,0.00,,,0.00,Wunderground v.1.15,2013-04-27 14:40:00,
2013-04-27 10:45:00,51.6,21.1,30.46,WSW,257,3.0,5.0,30,0.00,,,0.00,Wunderground v.1.15,2013-04-27 14:45:00,
2013-04-27 10:50:00,51.8,22.8,30.46,West,278,3.0,3.0,32,0.00,,,0.00,Wunderground v.1.15,2013-04-27 14:50:00,
2013-04-27 10:55:00,52.1,23.8,30.46,WNW,285,2.0,3.0,33,0.00,,,0.00,Wunderground v.1.15,2013-04-27 14:55:00,
2013-04-27 11:00:00,53.1,24.7,30.46,West,278,2.0,5.0,33,0.00,,,0.00,Wunderground v.1.15,2013-04-27 15:00:00,
2013-04-27 11:05:00,52.7,23.6,30.45,SW,224,2.0,5.0,32,0.00,,,0.00,Wunderground v.1.15,2013-04-27 15:05:00,
2013-04-27 11:10:00,53.3,24.9,30.45,NNW,330,2.0,3.0,33,0.00,,,0.00,Wunderground v.1.15,2013-04-27 15:10:00,
2013-04-27 11:15:00,53.9,27.5,30.45,WNW,287,2.0,3.0,36,0.00,,,0.00,Wunderground v.1.15,2013-04-27 15:15:00,
2013-04-27 11:21:00,53.7,23.7,30.45,WNW,284,3.0,6.0,31,0.00,,,0.00,Wunderground v.1.15,2013-04-27 15:21:00,
2013-04-27 11:26:00,53.2,23.3,30.45,WNW,294,3.0,6.0,31,0.00,,,0.00,Wunderground v.1.15,2013-04-27 15:26:00,
2013-04-27 11:31:00,53.4,27.1,30.45,East,85,3.0,3.0,36,0.00,,,0.00,Wunderground v.1.15,2013-04-27 15:31:00,
2013-04-27 11:36:00,54.3,27.2,30.45,WNW,295,2.0,3.0,35,0.00,,,0.00,Wunderground v.1.15,2013-04-27 15:36:00,
2013-04-27 11:41:00,54.6,26.8,30.45,SSE,152,2.0,2.0,34,0.00,,,0.00,Wunderground v.1.15,2013-04-27 15:41:00,
2013-04-27 11:47:00,54.9,27.7,30.44,NW,314,2.0,4.0,35,0.00,,,0.00,Wunderground v.1.15,2013-04-27 15:47:00,
2013-04-27 11:53:00,55.4,24.4,30.44,NW,309,2.0,5.0,30,0.00,,,0.00,Wunderground v.1.15,2013-04-27 15:53:00,
2013-04-27 11:58:00,55.2,28.0,30.44,NNW,331,2.0,5.0,35,0.00,,,0.00,Wunderground v.1.15,2013-04-27 15:58:00,
2013-04-27 12:03:00,56.1,25.1,30.44,East,93,2.0,2.0,30,0.00,,,0.00,Wunderground v.1.15,2013-04-27 16:03:00,
2013-04-27 12:09:00,56.2,26.7,30.44,SE,131,2.0,3.0,32,0.00,,,0.00,Wunderground v.1.15,2013-04-27 16:09:00,
2013-04-27 12:14:00,57.0,26.6,30.43,West,276,2.0,3.0,31,0.00,,,0.00,Wunderground v.1.15,2013-04-27 16:14:00,
2013-04-27 12:19:00,56.9,27.3,30.44,WNW,283,3.0,6.0,32,0.00,,,0.00,Wunderground v.1.15,2013-04-27 16:19:00,
2013-04-27 12:24:00,56.8,25.7,30.43,WNW,284,4.0,7.0,30,0.00,,,0.00,Wunderground v.1.15,2013-04-27 16:24:00,
2013-04-27 12:29:00,57.5,31.4,30.43,NNE,12,3.0,7.0,37,0.00,,,0.00,Wunderground v.1.15,2013-04-27 16:29:00,
2013-04-27 12:34:00,57.1,25.1,30.43,SSW,205,2.0,6.0,29,0.00,,,0.00,Wunderground v.1.15,2013-04-27 16:34:00,
2013-04-27 12:39:00,57.1,26.7,30.42,SSW,195,3.0,7.0,31,0.00,,,0.00,Wunderground v.1.15,2013-04-27 16:39:00,
2013-04-27 12:44:00,56.8,26.5,30.42,WNW,287,3.0,5.0,31,0.00,,,0.00,Wunderground v.1.15,2013-04-27 16:44:00,
2013-04-27 12:49:00,57.7,32.2,30.42,North,6,3.0,5.0,38,0.00,,,0.00,Wunderground v.1.15,2013-04-27 16:49:00,
2013-04-27 12:55:00,58.1,31.3,30.42,NW,307,3.0,6.0,36,0.00,,,0.00,Wunderground v.1.15,2013-04-27 16:55:00,
2013-04-27 13:00:00,58.0,29.8,30.42,NW,325,3.0,3.0,34,0.00,,,0.00,Wunderground v.1.15,2013-04-27 17:00:00,
2013-04-27 13:05:00,58.6,30.3,30.41,NNW,335,3.0,4.0,34,0.00,,,0.00,Wunderground v.1.15,2013-04-27 17:05:00,
2013-04-27 13:10:00,57.9,28.2,30.41,South,191,3.0,3.0,32,0.00,,,0.00,Wunderground v.1.15,2013-04-27 17:10:00,
2013-04-27 13:15:00,58.8,30.5,30.41,NNW,340,2.0,3.0,34,0.00,,,0.00,Wunderground v.1.15,2013-04-27 17:15:00,
2013-04-27 13:20:00,58.9,31.3,30.40,NNW,347,2.0,3.0,35,0.00,,,0.00,Wunderground v.1.15,2013-04-27 17:20:00,
2013-04-27 13:25:00,59.5,31.1,30.41,WNW,282,3.0,6.0,34,0.00,,,0.00,Wunderground v.1.15,2013-04-27 17:25:00,
2013-04-27 13:31:00,59.3,30.2,30.40,NW,316,3.0,3.0,33,0.00,,,0.00,Wunderground v.1.15,2013-04-27 17:31:00,
2013-04-27 13:36:00,59.5,29.6,30.40,SW,229,3.0,6.0,32,0.00,,,0.00,Wunderground v.1.15,2013-04-27 17:36:00,
2013-04-27 13:41:00,59.5,29.6,30.40,NW,318,3.0,4.0,32,0.00,,,0.00,Wunderground v.1.15,2013-04-27 17:41:00,
2013-04-27 13:46:00,59.3,32.3,30.40,NW,316,4.0,8.0,36,0.00,,,0.00,Wunderground v.1.15,2013-04-27 17:46:00,
2013-04-27 13:51:00,59.9,30.7,30.39,West,271,4.0,5.0,33,0.00,,,0.00,Wunderground v.1.15,2013-04-27 17:51:00,
2013-04-27 13:57:00,60.2,30.2,30.40,WNW,297,4.0,5.0,32,0.00,,,0.00,Wunderground v.1.15,2013-04-27 17:57:00,
2013-04-27 14:02:00,60.4,31.1,30.39,WSW,238,3.0,3.0,33,0.00,,,0.00,Wunderground v.1.15,2013-04-27 18:02:00,
2013-04-27 14:07:00,60.6,30.6,30.39,SSW,210,2.0,5.0,32,0.00,,,0.00,Wunderground v.1.15,2013-04-27 18:07:00,
2013-04-27 14:12:00,60.9,30.8,30.39,North,6,2.0,2.0,32,0.00,,,0.00,Wunderground v.1.15,2013-04-27 18:12:00,
2013-04-27 14:17:00,60.9,32.3,30.39,NW,315,2.0,6.0,34,0.00,,,0.00,Wunderground v.1.15,2013-04-27 18:17:00,
2013-04-27 14:23:00,61.4,32.8,30.38,NNW,327,2.0,2.0,34,0.00,,,0.00,Wunderground v.1.15,2013-04-27 18:23:00,
2013-04-27 14:28:00,61.6,31.4,30.38,WNW,301,2.0,4.0,32,0.00,,,0.00,Wunderground v.1.15,2013-04-27 18:28:00,
2013-04-27 14:33:00,61.5,34.3,30.38,NE,43,2.0,5.0,36,0.00,,,0.00,Wunderground v.1.15,2013-04-27 18:33:00,
2013-04-27 14:38:00,61.6,32.9,30.38,North,360,3.0,5.0,34,0.00,,,0.00,Wunderground v.1.15,2013-04-27 18:38:00,
2013-04-27 14:43:00,60.8,33.0,30.38,WNW,293,3.0,3.0,35,0.00,,,0.00,Wunderground v.1.15,2013-04-27 18:43:00,
2013-04-27 14:49:00,60.9,32.3,30.37,NW,305,3.0,5.0,34,0.00,,,0.00,Wunderground v.1.15,2013-04-27 18:49:00,
2013-04-27 14:54:00,60.7,32.9,30.37,North,356,4.0,5.0,35,0.00,,,0.00,Wunderground v.1.15,2013-04-27 18:54:00,
2013-04-27 14:59:00,61.4,32.8,30.37,NW,315,3.0,5.0,34,0.00,,,0.00,Wunderground v.1.15,2013-04-27 18:59:00,
2013-04-27 15:04:00,60.9,31.6,30.37,North,5,3.0,9.0,33,0.00,,,0.00,Wunderground v.1.15,2013-04-27 19:04:00,
2013-04-27 15:09:00,59.8,30.6,30.37,North,360,3.0,9.0,33,0.00,,,0.00,Wunderground v.1.15,2013-04-27 19:09:00,
2013-04-27 15:15:00,60.7,34.3,30.37,NNW,338,2.0,3.0,37,0.00,,,0.00,Wunderground v.1.15,2013-04-27 19:15:00,
2013-04-27 15:20:00,60.5,33.4,30.37,North,357,2.0,2.0,36,0.00,,,0.00,Wunderground v.1.15,2013-04-27 19:20:00,
2013-04-27 15:25:00,61.4,33.5,30.36,NW,306,2.0,4.0,35,0.00,,,0.00,Wunderground v.1.15,2013-04-27 19:25:00,
2013-04-27 15:30:00,60.8,33.0,30.36,WNW,301,4.0,4.0,35,0.00,,,0.00,Wunderground v.1.15,2013-04-27 19:30:00,
2013-04-27 15:35:00,60.0,33.6,30.36,WNW,291,3.0,4.0,37,0.00,,,0.00,Wunderground v.1.15,2013-04-27 19:35:00,
2013-04-27 15:41:00,59.4,33.1,30.36,North,353,2.0,2.0,37,0.00,,,0.00,Wunderground v.1.15,2013-04-27 19:41:00,
2013-04-27 15:46:00,59.2,34.2,30.36,NNW,337,2.0,4.0,39,0.00,,,0.00,Wunderground v.1.15,2013-04-27 19:46:00,
2013-04-27 15:51:00,59.2,32.2,30.35,North,360,1.0,4.0,36,0.00,,,0.00,Wunderground v.1.15,2013-04-27 19:51:00,
2013-04-27 15:56:00,59.4,34.4,30.35,WNW,293,2.0,4.0,39,0.00,,,0.00,Wunderground v.1.15,2013-04-27 19:56:00,
2013-04-27 16:01:00,59.5,33.2,30.35,NE,45,2.0,2.0,37,0.00,,,0.00,Wunderground v.1.15,2013-04-27 20:01:00,
2013-04-27 16:06:00,60.1,33.7,30.35,ESE,120,2.0,2.0,37,0.00,,,0.00,Wunderground v.1.15,2013-04-27 20:06:00,
2013-04-27 16:11:00,61.1,33.2,30.34,SW,236,2.0,2.0,35,0.00,,,0.00,Wunderground v.1.15,2013-04-27 20:11:00,
2013-04-27 16:17:00,60.8,32.2,30.34,NW,318,1.0,3.0,34,0.00,,,0.00,Wunderground v.1.15,2013-04-27 20:17:00,
2013-04-27 16:22:00,59.6,31.9,30.34,WNW,282,1.0,2.0,35,0.00,,,0.00,Wunderground v.1.15,2013-04-27 20:22:00,
2013-04-27 16:27:00,59.2,32.2,30.34,NNW,337,1.0,2.0,36,0.00,,,0.00,Wunderground v.1.15,2013-04-27 20:27:00,
2013-04-27 16:33:00,58.9,33.3,30.34,NW,319,2.0,3.0,38,0.00,,,0.00,Wunderground v.1.15,2013-04-27 20:33:00,
2013-04-27 16:38:00,59.9,33.5,30.34,NNW,331,2.0,3.0,37,0.00,,,0.00,Wunderground v.1.15,2013-04-27 20:38:00,
2013-04-27 16:43:00,61.1,33.2,30.34,West,274,2.0,4.0,35,0.00,,,0.00,Wunderground v.1.15,2013-04-27 20:43:00,
2013-04-27 16:48:00,62.0,33.3,30.34,NNW,328,2.0,4.0,34,0.00,,,0.00,Wunderground v.1.15,2013-04-27 20:48:00,
2013-04-27 16:53:00,62.6,35.9,30.34,NE,47,2.0,3.0,37,0.00,,,0.00,Wunderground v.1.15,2013-04-27 20:53:00,
2013-04-27 16:59:00,62.6,35.9,30.34,NNE,14,2.0,5.0,37,0.00,,,0.00,Wunderground v.1.15,2013-04-27 20:59:00,
2013-04-27 17:04:00,62.5,35.2,30.34,NNW,337,2.0,3.0,36,0.00,,,0.00,Wunderground v.1.15,2013-04-27 21:04:00,
2013-04-27 17:09:00,62.4,34.4,30.34,ENE,75,2.0,3.0,35,0.00,,,0.00,Wunderground v.1.15,2013-04-27 21:09:00,
2013-04-27 17:14:00,62.1,33.4,30.34,WSW,258,2.0,2.0,34,0.00,,,0.00,Wunderground v.1.15,2013-04-27 21:14:00,
2013-04-27 17:19:00,60.6,32.8,30.34,WNW,297,2.0,4.0,35,0.00,,,0.00,Wunderground v.1.15,2013-04-27 21:19:00,
2013-04-27 17:25:00,60.0,32.9,30.33,NNE,14,2.0,3.0,36,0.00,,,0.00,Wunderground v.1.15,2013-04-27 21:25:00,
2013-04-27 17:30:00,60.6,34.2,30.33,West,271,2.0,2.0,37,0.00,,,0.00,Wunderground v.1.15,2013-04-27 21:30:00,
2013-04-27 17:35:00,59.9,34.9,30.33,WSW,249,2.0,4.0,39,0.00,,,0.00,Wunderground v.1.15,2013-04-27 21:35:00,
2013-04-27 17:40:00,60.2,33.1,30.33,West,263,2.0,2.0,36,0.00,,,0.00,Wunderground v.1.15,2013-04-27 21:40:00,
2013-04-27 17:45:00,61.2,32.6,30.33,WNW,295,2.0,3.0,34,0.00,,,0.00,Wunderground v.1.15,2013-04-27 21:45:00,
2013-04-27 17:50:00,61.6,32.9,30.33,SW,221,2.0,2.0,34,0.00,,,0.00,Wunderground v.1.15,2013-04-27 21:50:00,
2013-04-27 17:55:00,61.8,32.4,30.33,South,191,2.0,2.0,33,0.00,,,0.00,Wunderground v.1.15,2013-04-27 21:55:00,
2013-04-27 18:00:00,61.0,32.4,30.33,West,267,2.0,3.0,34,0.00,,,0.00,Wunderground v.1.15,2013-04-27 22:00:00,
2013-04-27 18:05:00,61.2,35.4,30.33,NNW,333,2.0,3.0,38,0.00,,,0.00,Wunderground v.1.15,2013-04-27 22:05:00,
2013-04-27 18:10:00,60.9,33.0,30.32,West,274,2.0,2.0,35,0.00,,,0.00,Wunderground v.1.15,2013-04-27 22:10:00,
2013-04-27 18:15:00,60.0,34.3,30.32,WNW,288,1.0,2.0,38,0.00,,,0.00,Wunderground v.1.15,2013-04-27 22:15:00,
2013-04-27 18:21:00,59.9,33.5,30.32,West,280,1.0,3.0,37,0.00,,,0.00,Wunderground v.1.15,2013-04-27 22:21:00,
2013-04-27 18:26:00,59.7,33.4,30.32,WSW,238,1.0,3.0,37,0.00,,,0.00,Wunderground v.1.15,2013-04-27 22:26:00,
2013-04-27 18:31:00,59.3,35.0,30.32,WNW,284,2.0,2.0,40,0.00,,,0.00,Wunderground v.1.15,2013-04-27 22:31:00,
2013-04-27 18:36:00,59.3,33.7,30.32,West,280,2.0,3.0,38,0.00,,,0.00,Wunderground v.1.15,2013-04-27 22:36:00,
2013-04-27 18:41:00,59.1,32.8,30.32,West,279,2.0,3.0,37,0.00,,,0.00,Wunderground v.1.15,2013-04-27 22:41:00,
2013-04-27 18:47:00,59.0,32.7,30.32,SW,225,2.0,3.0,37,0.00,,,0.00,Wunderground v.1.15,2013-04-27 22:47:00,
2013-04-27 18:52:00,59.1,32.8,30.32,WNW,297,1.0,2.0,37,0.00,,,0.00,Wunderground v.1.15,2013-04-27 22:52:00,
2013-04-27 18:57:00,59.0,33.4,30.32,NW,307,2.0,3.0,38,0.00,,,0.00,Wunderground v.1.15,2013-04-27 22:57:00,
2013-04-27 19:02:00,58.6,33.7,30.32,NW,312,2.0,4.0,39,0.00,,,0.00,Wunderground v.1.15,2013-04-27 23:02:00,
2013-04-27 19:07:00,58.3,33.4,30.32,WNW,302,2.0,4.0,39,0.00,,,0.00,Wunderground v.1.15,2013-04-27 23:07:00,
2013-04-27 19:13:00,58.2,33.3,30.32,NW,314,1.0,4.0,39,0.00,,,0.00,Wunderground v.1.15,2013-04-27 23:13:00,
2013-04-27 19:18:00,58.1,33.2,30.32,NNW,347,1.0,4.0,39,0.00,,,0.00,Wunderground v.1.15,2013-04-27 23:18:00,
2013-04-27 19:23:00,57.7,33.5,30.32,West,273,1.0,3.0,40,0.00,,,0.00,Wunderground v.1.15,2013-04-27 23:23:00,
2013-04-27 19:28:00,57.4,33.3,30.32,NW,313,2.0,3.0,40,0.00,,,0.00,Wunderground v.1.15,2013-04-27 23:28:00,
2013-04-27 19:33:00,57.1,33.6,30.32,North,352,2.0,2.0,41,0.00,,,0.00,Wunderground v.1.15,2013-04-27 23:33:00,
2013-04-27 19:39:00,56.5,33.7,30.32,NW,316,1.0,2.0,42,0.00,,,0.00,Wunderground v.1.15,2013-04-27 23:39:00,
2013-04-27 19:44:00,56.0,33.2,30.32,NW,316,1.0,1.0,42,0.00,,,0.00,Wunderground v.1.15,2013-04-27 23:44:00,
2013-04-27 19:49:00,55.6,33.4,30.32,NW,316,0.0,1.0,43,0.00,,,0.00,Wunderground v.1.15,2013-04-27 23:49:00,
2013-04-27 19:54:00,55.1,33.0,30.32,NW,316,0.0,0.0,43,0.00,,,0.00,Wunderground v.1.15,2013-04-27 23:54:00,
2013-04-27 19:59:00,54.7,33.8,30.32,NW,316,0.0,0.0,45,0.00,,,0.00,Wunderground v.1.15,2013-04-27 23:59:00,
2013-04-27 20:05:00,53.8,33.5,30.32,NW,316,0.0,0.0,46,0.00,,,0.00,Wunderground v.1.15,2013-04-28 00:05:00,
2013-04-27 20:10:00,53.2,34.0,30.32,NW,316,0.0,0.0,48,0.00,,,0.00,Wunderground v.1.15,2013-04-28 00:10:00,
2013-04-27 20:15:00,52.6,34.0,30.32,NW,316,0.0,0.0,49,0.00,,,0.00,Wunderground v.1.15,2013-04-28 00:15:00,
2013-04-27 20:20:00,52.2,35.1,30.32,NW,316,0.0,0.0,52,0.00,,,0.00,Wunderground v.1.15,2013-04-28 00:20:00,
2013-04-27 20:25:00,51.7,35.1,30.32,NW,316,0.0,0.0,53,0.00,,,0.00,Wunderground v.1.15,2013-04-28 00:25:00,
2013-04-27 20:31:00,51.2,36.0,30.32,NW,316,0.0,1.0,56,0.00,,,0.00,Wunderground v.1.15,2013-04-28 00:31:00,
2013-04-27 20:36:00,50.7,36.0,30.32,NW,316,0.0,1.0,57,0.00,,,0.00,Wunderground v.1.15,2013-04-28 00:36:00,
2013-04-27 20:41:00,50.4,35.3,30.32,NW,316,0.0,0.0,56,0.00,,,0.00,Wunderground v.1.15,2013-04-28 00:41:00,
2013-04-27 20:46:00,50.6,35.5,30.33,NW,316,0.0,0.0,56,0.00,,,0.00,Wunderground v.1.15,2013-04-28 00:46:00,
2013-04-27 20:51:00,50.8,35.2,30.33,NW,316,0.0,0.0,55,0.00,,,0.00,Wunderground v.1.15,2013-04-28 00:51:00,
2013-04-27 20:57:00,50.6,34.1,30.33,NW,316,0.0,0.0,53,0.00,,,0.00,Wunderground v.1.15,2013-04-28 00:57:00,
2013-04-27 21:02:00,50.8,34.3,30.33,NW,316,0.0,6.0,53,0.00,,,0.00,Wunderground v.1.15,2013-04-28 01:02:00,
2013-04-27 21:07:00,51.1,34.5,30.33,NW,316,0.0,6.0,53,0.00,,,0.00,Wunderground v.1.15,2013-04-28 01:07:00,
2013-04-27 21:12:00,51.3,34.3,30.33,NW,316,0.0,6.0,52,0.00,,,0.00,Wunderground v.1.15,2013-04-28 01:12:00,
2013-04-27 21:17:00,51.4,34.3,30.33,NW,316,0.0,6.0,52,0.00,,,0.00,Wunderground v.1.15,2013-04-28 01:17:00,
2013-04-27 21:23:00,51.3,34.7,30.33,NW,316,0.0,6.0,53,0.00,,,0.00,Wunderground v.1.15,2013-04-28 01:23:00,
2013-04-27 21:28:00,51.3,35.2,30.33,NW,316,0.0,6.0,54,0.00,,,0.00,Wunderground v.1.15,2013-04-28 01:28:00,
2013-04-27 21:33:00,51.1,35.0,30.33,NW,316,0.0,6.0,54,0.00,,,0.00,Wunderground v.1.15,2013-04-28 01:33:00,
2013-04-27 21:38:00,50.9,35.3,30.33,NW,316,0.0,6.0,55,0.00,,,0.00,Wunderground v.1.15,2013-04-28 01:38:00,
2013-04-27 21:43:00,50.9,34.8,30.33,NW,316,0.0,6.0,54,0.00,,,0.00,Wunderground v.1.15,2013-04-28 01:43:00,
2013-04-27 21:49:00,50.9,34.4,30.33,NW,316,0.0,6.0,53,0.00,,,0.00,Wunderground v.1.15,2013-04-28 01:49:00,
2013-04-27 21:54:00,50.8,34.7,30.34,NW,316,0.0,6.0,54,0.00,,,0.00,Wunderground v.1.15,2013-04-28 01:54:00,
2013-04-27 21:59:00,50.4,34.4,30.34,NW,316,0.0,6.0,54,0.00,,,0.00,Wunderground v.1.15,2013-04-28 01:59:00,
2013-04-27 22:04:00,50.3,33.8,30.33,NW,316,0.0,6.0,53,0.00,,,0.00,Wunderground v.1.15,2013-04-28 02:04:00,
2013-04-27 22:09:00,50.3,33.8,30.33,NW,316,0.0,6.0,53,0.00,,,0.00,Wunderground v.1.15,2013-04-28 02:09:00,
2013-04-27 22:15:00,50.0,34.5,30.33,NW,316,0.0,6.0,55,0.00,,,0.00,Wunderground v.1.15,2013-04-28 02:15:00,
2013-04-27 22:20:00,49.4,36.5,30.34,NW,316,0.0,6.0,61,0.00,,,0.00,Wunderground v.1.15,2013-04-28 02:20:00,
2013-04-27 22:25:00,48.6,37.0,30.34,NW,316,0.0,6.0,64,0.00,,,0.00,Wunderground v.1.15,2013-04-28 02:25:00,
2013-04-27 22:30:00,48.0,36.4,30.34,NW,316,0.0,6.0,64,0.00,,,0.00,Wunderground v.1.15,2013-04-28 02:30:00,
2013-04-27 22:35:00,47.7,36.1,30.33,NW,316,0.0,6.0,64,0.00,,,0.00,Wunderground v.1.15,2013-04-28 02:35:00,
2013-04-27 22:41:00,47.4,36.2,30.33,NW,316,0.0,6.0,65,0.00,,,0.00,Wunderground v.1.15,2013-04-28 02:41:00,
2013-04-27 22:46:00,47.0,35.8,30.33,NW,316,0.0,6.0,65,0.00,,,0.00,Wunderground v.1.15,2013-04-28 02:46:00,
2013-04-27 22:51:00,46.6,35.5,30.33,NW,316,0.0,6.0,65,0.00,,,0.00,Wunderground v.1.15,2013-04-28 02:51:00,
2013-04-27 22:56:00,46.3,35.6,30.33,NW,316,0.0,6.0,66,0.00,,,0.00,Wunderground v.1.15,2013-04-28 02:56:00,
2013-04-27 23:01:00,46.2,34.3,30.33,NW,316,0.0,6.0,63,0.00,,,0.00,Wunderground v.1.15,2013-04-28 03:01:00,
2013-04-27 23:06:00,46.3,34.8,30.33,NW,316,0.0,6.0,64,0.00,,,0.00,Wunderground v.1.15,2013-04-28 03:06:00,
2013-04-27 23:11:00,46.4,34.1,30.33,NW,316,0.0,6.0,62,0.00,,,0.00,Wunderground v.1.15,2013-04-28 03:11:00,
2013-04-27 23:16:00,46.2,34.3,30.33,NW,316,0.0,6.0,63,0.00,,,0.00,Wunderground v.1.15,2013-04-28 03:16:00,
2013-04-27 23:21:00,46.1,34.2,30.33,NW,316,0.0,6.0,63,0.00,,,0.00,Wunderground v.1.15,2013-04-28 03:21:00,
2013-04-27 23:26:00,45.8,33.9,30.33,NW,320,0.0,6.0,63,0.00,,,0.00,Wunderground v.1.15,2013-04-28 03:26:00,
2013-04-27 23:31:00,45.6,34.1,30.32,NNE,22,1.0,6.0,64,0.00,,,0.00,Wunderground v.1.15,2013-04-28 03:31:00,
2013-04-27 23:37:00,44.8,34.1,30.32,NNE,21,1.0,6.0,66,0.00,,,0.00,Wunderground v.1.15,2013-04-28 03:37:00,
2013-04-27 23:42:00,44.3,34.4,30.33,NNE,22,1.0,6.0,68,0.00,,,0.00,Wunderground v.1.15,2013-04-28 03:42:00,
2013-04-27 23:47:00,44.0,33.7,30.32,NNE,22,0.0,6.0,67,0.00,,,0.00,Wunderground v.1.15,2013-04-28 03:47:00,
2013-04-27 23:52:00,44.2,33.9,30.32,NNE,22,0.0,6.0,67,0.00,,,0.00,Wunderground v.1.15,2013-04-28 03:52:00,
2013-04-27 23:57:00,44.2,33.9,30.32,NNE,32,1.0,6.0,67,0.00,,,0.00,Wunderground v.1.15,2013-04-28 03:57:00,